When you browse on this site, cookies collect data to enhance your experience and personalize the content and advertising you see.
Visit our Privacy Policy to learn more. By continuing to use the site, you agree to this use of cookies and data.
  • In Austria
  • List of Countries
  • For 7 days
  • Water Temperature
  • Weather Map
  • News
  • Weather Widgets
  • user-avatar
    Login

    Hourly Weather Stoneham

    Today, 18 August, Sunday

    Time Temperature Precipitation Wind Pressure Humidity
    00:00 +23°C° 0 mm 2 mps 758 mmHg 95%
    01:00 +23°C° 0 mm 2 mps 757 mmHg 95%
    02:00 +23°C° 0 mm 1 mps 758 mmHg 95%
    03:00 +23°C° 0 mm 1 mps 758 mmHg 94%
    04:00 +23°C° 0 mm 1 mps 758 mmHg 94%
    05:00 +24°C° 0 mm 1 mps 758 mmHg 92%
    06:00 +24°C° 0 mm 1 mps 758 mmHg 90%
    07:00 +24°C° 0 mm 1 mps 759 mmHg 88%
    08:00 +26°C° 0 mm 1 mps 758 mmHg 79%
    09:00 +28°C° 0 mm 1 mps 758 mmHg 70%
    10:00 +30°C° 0 mm 1 mps 758 mmHg 62%
    11:00 +31°C° 0 mm 1 mps 758 mmHg 56%
    12:00 +32°C° 0 mm 2 mps 758 mmHg 50%
    13:00 +34°C° 0 mm 2 mps 758 mmHg 45%
    14:00 +34°C° 0 mm 2 mps 758 mmHg 48%
    15:00 +32°C° 0 mm 2 mps 757 mmHg 50%
    16:00 +31°C° 0 mm 3 mps 757 mmHg 53%
    17:00 +30°C° 0.4 mm 3 mps 757 mmHg 62%
    18:00 +28°C° 0.4 mm 3 mps 757 mmHg 72%
    19:00 +26°C° 0.4 mm 3 mps 757 mmHg 81%
    20:00 +26°C° 0.7 mm 3 mps 757 mmHg 82%
    21:00 +25°C° 0.7 mm 3 mps 758 mmHg 83%
    22:00 +25°C° 0.7 mm 3 mps 758 mmHg 85%
    23:00 +25°C° 0.4 mm 2 mps 758 mmHg 86%

    Tomorrow, 19 August, Monday

    Time Temperature Precipitation Wind Pressure Humidity
    00:00 +24°C° 0.4 mm 2 mps 757 mmHg 87%
    01:00 +24°C° 0.4 mm 2 mps 757 mmHg 89%
    02:00 +24°C° 0.1 mm 2 mps 757 mmHg 88%
    03:00 +24°C° 0.1 mm 2 mps 757 mmHg 88%
    04:00 +24°C° 0.1 mm 2 mps 757 mmHg 88%
    05:00 +25°C° 0.2 mm 2 mps 757 mmHg 87%
    06:00 +25°C° 0.2 mm 2 mps 758 mmHg 86%
    07:00 +26°C° 0.2 mm 2 mps 758 mmHg 85%
    08:00 +28°C° 0 mm 3 mps 758 mmHg 75%
    09:00 +30°C° 0 mm 3 mps 758 mmHg 66%
    10:00 +33°C° 0 mm 3 mps 758 mmHg 57%
    11:00 +34°C° 0 mm 3 mps 757 mmHg 51%
    12:00 +35°C° 0 mm 4 mps 757 mmHg 46%
    13:00 +37°C° 0 mm 4 mps 756 mmHg 40%
    14:00 +37°C° 0 mm 4 mps 756 mmHg 41%
    15:00 +36°C° 0 mm 4 mps 756 mmHg 41%
    16:00 +36°C° 0 mm 4 mps 756 mmHg 42%
    17:00 +34°C° 0.3 mm 4 mps 756 mmHg 50%
    18:00 +31°C° 0.3 mm 3 mps 756 mmHg 58%
    19:00 +29°C° 0.3 mm 3 mps 756 mmHg 65%
    20:00 +28°C° 0.4 mm 3 mps 757 mmHg 70%
    21:00 +27°C° 0.4 mm 3 mps 757 mmHg 76%
    22:00 +26°C° 0.4 mm 3 mps 757 mmHg 81%
    23:00 +26°C° 0 mm 2 mps 757 mmHg 80%

    Day after tomorrow, 20 August, Tuesday

    Time Temperature Precipitation Wind Pressure Humidity
    00:00 +25°C° 0 mm 2 mps 757 mmHg 79%
    01:00 +25°C° 0 mm 2 mps 757 mmHg 79%
    02:00 +25°C° 0 mm 2 mps 757 mmHg 78%
    03:00 +24°C° 0 mm 2 mps 757 mmHg 78%
    04:00 +24°C° 0 mm 2 mps 757 mmHg 77%
    05:00 +25°C° 0 mm 2 mps 758 mmHg 74%
    06:00 +26°C° 0 mm 1 mps 758 mmHg 72%
    07:00 +27°C° 0 mm 1 mps 759 mmHg 69%
    08:00 +29°C° 0 mm 1 mps 759 mmHg 62%
    09:00 +31°C° 0 mm 1 mps 759 mmHg 54%
    10:00 +32°C° 0 mm 1 mps 759 mmHg 47%
    11:00 +32°C° 0 mm 2 mps 759 mmHg 48%
    12:00 +32°C° 0 mm 2 mps 759 mmHg 49%
    13:00 +33°C° 0 mm 3 mps 758 mmHg 51%
    14:00 +31°C° 0 mm 3 mps 758 mmHg 54%
    15:00 +29°C° 0 mm 4 mps 758 mmHg 58%
    16:00 +28°C° 0 mm 4 mps 758 mmHg 61%
    17:00 +27°C° 0.4 mm 4 mps 758 mmHg 67%
    18:00 +26°C° 0.4 mm 3 mps 759 mmHg 73%
    19:00 +24°C° 0.4 mm 3 mps 759 mmHg 79%
    20:00 +24°C° 2.4 mm 2 mps 759 mmHg 83%
    21:00 +24°C° 2.4 mm 2 mps 759 mmHg 86%
    22:00 +24°C° 2.4 mm 2 mps 759 mmHg 90%
    23:00 +24°C° 1.4 mm 2 mps 759 mmHg 91%

    21 August, Wednesday

    Time Temperature Precipitation Wind Pressure Humidity
    00:00 +24°C° 1.4 mm 2 mps 758 mmHg 92%
    01:00 +24°C° 1.4 mm 1 mps 758 mmHg 93%
    02:00 +24°C° 1.7 mm 1 mps 758 mmHg 94%
    03:00 +24°C° 1.7 mm 1 mps 758 mmHg 94%
    04:00 +24°C° 1.7 mm 1 mps 757 mmHg 94%
    05:00 +24°C° 0.3 mm 1 mps 757 mmHg 93%
    06:00 +25°C° 0.3 mm 1 mps 757 mmHg 91%
    07:00 +25°C° 0.3 mm 1 mps 757 mmHg 89%
    08:00 +26°C° 0.1 mm 2 mps 757 mmHg 81%
    09:00 +28°C° 0.1 mm 2 mps 757 mmHg 73%
    10:00 +30°C° 0.1 mm 2 mps 757 mmHg 65%
    11:00 +31°C° 0.2 mm 2 mps 756 mmHg 61%
    12:00 +33°C° 0.2 mm 3 mps 756 mmHg 57%
    13:00 +34°C° 0.2 mm 3 mps 756 mmHg 54%
    14:00 +34°C° 0.1 mm 3 mps 755 mmHg 53%
    15:00 +34°C° 0.1 mm 3 mps 755 mmHg 52%
    16:00 +34°C° 0.1 mm 3 mps 754 mmHg 51%
    17:00 +33°C° 0 mm 4 mps 754 mmHg 58%
    18:00 +30°C° 0 mm 4 mps 754 mmHg 64%
    19:00 +29°C° 0 mm 4 mps 754 mmHg 70%
    20:00 +28°C° 0 mm 4 mps 754 mmHg 74%
    21:00 +27°C° 0 mm 4 mps 754 mmHg 78%
    22:00 +26°C° 0 mm 4 mps 754 mmHg 82%
    23:00 +26°C° 0 mm 4 mps 753 mmHg 83%

    22 August, Thursday

    Time Temperature Precipitation Wind Pressure Humidity
    00:00 +26°C° 0 mm 4 mps 753 mmHg 83%
    01:00 +26°C° 0 mm 4 mps 753 mmHg 84%
    02:00 +25°C° 0 mm 3 mps 752 mmHg 86%
    03:00 +25°C° 0 mm 3 mps 752 mmHg 88%
    04:00 +25°C° 0 mm 3 mps 752 mmHg 90%
    05:00 +25°C° 0.1 mm 3 mps 752 mmHg 86%
    06:00 +26°C° 0.1 mm 3 mps 753 mmHg 83%
    07:00 +26°C° 0.1 mm 3 mps 753 mmHg 80%
    08:00 +26°C° 0.1 mm 3 mps 753 mmHg 71%
    09:00 +25°C° 0.1 mm 4 mps 753 mmHg 62%
    10:00 +25°C° 0.1 mm 4 mps 753 mmHg 53%
    11:00 +27°C° 0 mm 5 mps 753 mmHg 46%
    12:00 +28°C° 0 mm 5 mps 753 mmHg 39%
    13:00 +30°C° 0 mm 6 mps 753 mmHg 32%
    14:00 +29°C° 0 mm 6 mps 753 mmHg 33%
    15:00 +28°C° 0 mm 6 mps 753 mmHg 33%
    16:00 +28°C° 0 mm 6 mps 753 mmHg 34%
    17:00 +26°C° 0 mm 5 mps 754 mmHg 37%
    18:00 +23°C° 0 mm 4 mps 755 mmHg 40%
    19:00 +22°C° 0 mm 4 mps 755 mmHg 43%
    20:00 +21°C° 0 mm 3 mps 756 mmHg 44%
    21:00 +20°C° 0 mm 3 mps 756 mmHg 46%
    22:00 +19°C° 0 mm 3 mps 757 mmHg 48%
    23:00 +18°C° 0 mm 3 mps 757 mmHg 50%

    23 August, Friday

    Time Temperature Precipitation Wind Pressure Humidity
    00:00 +17°C° 0 mm 3 mps 757 mmHg 52%
    01:00 +17°C° 0 mm 3 mps 757 mmHg 54%
    02:00 +16°C° 0 mm 2 mps 757 mmHg 57%
    03:00 +16°C° 0 mm 2 mps 758 mmHg 59%
    04:00 +16°C° 0 mm 2 mps 758 mmHg 61%
    05:00 +16°C° 0 mm 2 mps 758 mmHg 60%
    06:00 +17°C° 0 mm 2 mps 759 mmHg 58%
    07:00 +18°C° 0 mm 2 mps 759 mmHg 56%
    08:00 +20°C° 0 mm 3 mps 759 mmHg 50%
    09:00 +21°C° 0 mm 3 mps 759 mmHg 44%
    10:00 +24°C° 0 mm 3 mps 759 mmHg 38%
    11:00 +25°C° 0 mm 3 mps 758 mmHg 36%
    12:00 +25°C° 0 mm 3 mps 758 mmHg 34%
    13:00 +26°C° 0 mm 3 mps 758 mmHg 33%
    14:00 +26°C° 0 mm 3 mps 758 mmHg 33%
    15:00 +26°C° 0 mm 3 mps 758 mmHg 33%
    16:00 +26°C° 0 mm 3 mps 758 mmHg 33%
    17:00 +25°C° 0 mm 3 mps 758 mmHg 38%
    18:00 +23°C° 0 mm 2 mps 758 mmHg 43%
    19:00 +20°C° 0 mm 2 mps 759 mmHg 47%
    20:00 +20°C° 0 mm 2 mps 759 mmHg 48%
    21:00 +19°C° 0 mm 2 mps 759 mmHg 50%
    22:00 +18°C° 0 mm 2 mps 760 mmHg 51%
    23:00 +18°C° 0 mm 2 mps 760 mmHg 52%
    Show more